This is the latest recevied weather packets stored in our database for station/object ER1XDX-15. If no packets are shown the sender has not sent any weather packets the latest 10 day(s).
| Time | Temp. | Humidity | Pressure | Rain* | Wind** | Luminosity | Snow |
|---|---|---|---|---|---|---|---|
| 1777576765 | 18.89° C | 25% | 1014.9 hPa | - | - | - | - |
| 1777575865 | 18.89° C | 25% | 1014.8 hPa | - | - | - | - |
| 1777574965 | 19.44° C | 25% | 1014.7 hPa | - | - | - | - |
| 1777574065 | 19.44° C | 25% | 1014.5 hPa | - | - | - | - |
| 1777573165 | 19.44° C | 25% | 1014.5 hPa | - | - | - | - |
| 1777572265 | 19.44° C | 25% | 1014.3 hPa | - | - | - | - |
| 1777571365 | 19.44° C | 25% | 1014.2 hPa | - | - | - | - |
| 1777570465 | 19.44° C | 24% | 1014.1 hPa | - | - | - | - |
| 1777569565 | 20° C | 24% | 1013.9 hPa | - | - | - | - |
| 1777568665 | 20° C | 23% | 1013.7 hPa | - | - | - | - |
| 1777567764 | 20° C | 23% | 1013.6 hPa | - | - | - | - |
| 1777566864 | 20.56° C | 23% | 1013.5 hPa | - | - | - | - |
| 1777565963 | 20.56° C | 23% | 1013.5 hPa | - | - | - | - |
| 1777565063 | 20.56° C | 23% | 1013.4 hPa | - | - | - | - |
| 1777564163 | 20.56° C | 24% | 1013.3 hPa | - | - | - | - |
| 1777563263 | 20.56° C | 23% | 1013.3 hPa | - | - | - | - |
| 1777562363 | 20.56° C | 22% | 1013.4 hPa | - | - | - | - |
| 1777561463 | 20.56° C | 22% | 1013.4 hPa | - | - | - | - |
| 1777560563 | 21.11° C | 22% | 1013.3 hPa | - | - | - | - |
| 1777559663 | 21.11° C | 22% | 1013.3 hPa | - | - | - | - |
| 1777558763 | 21.11° C | 21% | 1013.5 hPa | - | - | - | - |
| 1777557863 | 20.56° C | 21% | 1013.5 hPa | - | - | - | - |
| 1777556963 | 20° C | 19% | 1013.7 hPa | - | - | - | - |
| 1777556063 | 22.22° C | 29% | 1013.8 hPa | - | - | - | - |
| 1777555162 | 22.78° C | 27% | 1013.9 hPa | - | - | - | - |
* Rain since midnight (hover to see other rain measurements)
** Current wind speed in m/s (hover to see current wind gust speed)